Moyie Springs, ID

3:09 AM PDT on August 29, 2016 (GMT -0700)
Boundary Cnty AP, Bonners Fer

Weather History for K65S - July, 2014

Change the Weather History Date:

Monday, July 21, 2014

  Actual Average (KSZT) Record (KSZT)
Temperature  
Mean Temperature 65 °F -  
Max Temperature 73 °F 81 °F 98 °F (1946)
Min Temperature 57 °F 49 °F 36 °F (1926)
Growing Degree Days 15 (Base 50)    
Moisture  
Dew Point 48 °F    
Average Humidity 55    
Maximum Humidity 88    
Minimum Humidity 38    
Precipitation  
Precipitation 0.00 in - - ()
Sea Level Pressure  
Sea Level Pressure 29.95 in    
Wind  
Wind Speed 5 mph (South)    
Max Wind Speed 13 mph    
Max Gust Speed 22 mph    
Visibility 10 miles    
Events      
Averages and records for this station are not official NWS values.
T = Trace of Precipitation, MM = Missing Value Source: NWS Daily Summary

Daily Weather History Graph

Daily Weather History Graph

Search for Another Location

Airport or City:

Trip Planner

Search our weather history database for the weather conditions in past years. The results will help you decide how hot, cold, wet, or windy it might be!

Date:

Astronomy

Jul. 21, 2014 Rise Set
Actual Time 5:05 AM PDT 8:37 PM PDT
Civil Twilight 4:25 AM PDT 9:16 PM PDT
Nautical Twilight 3:33 AM PDT 10:08 PM PDT
Astronomical Twilight 2:21 AM PDT 11:19 PM PDT
Moon 1:05 AM PDT (7/21) 4:19 PM PDT (7/21)
Length of Visible Light 16h 50m
Length of Day
15h 32m
Waning Crescent, 23% of the Moon is Illuminated
Jul 21
Waning Crescent
Jul 26
New
Aug 3
First Quarter
Aug 10
Full
Aug 17
Last Quarter

Hourly Weather History & Observations

Time (PDT) Temp. Dew Point Humidity Pressure Visibility Wind Dir Wind Speed Gust Speed Precip Events Conditions
12:15 AM 64.4 °F 55.4 °F 73% 29.80 in 10.0 mi South 3.5 mph - N/A   Clear
12:35 AM 62.6 °F 53.6 °F 72% 29.80 in 10.0 mi ESE 3.5 mph - N/A   Partly Cloudy
12:55 AM 62.6 °F 53.6 °F 72% 29.80 in 10.0 mi SE 3.5 mph - N/A   Clear
1:15 AM 62.6 °F 53.6 °F 72% 29.80 in 10.0 mi Calm Calm - N/A   Partly Cloudy
1:35 AM 62.6 °F 53.6 °F 72% 29.80 in 10.0 mi ESE 3.5 mph - N/A   Mostly Cloudy
1:55 AM 59.0 °F 53.6 °F 82% 29.81 in 10.0 mi Calm Calm - N/A   Mostly Cloudy
2:15 AM 59.0 °F 53.6 °F 82% 29.81 in 10.0 mi Calm Calm - N/A   Partly Cloudy
2:35 AM 57.2 °F 53.6 °F 88% 29.82 in 10.0 mi Calm Calm - N/A   Clear
2:55 AM 57.2 °F 53.6 °F 88% 29.82 in 10.0 mi Calm Calm - N/A   Clear
3:15 AM 59.0 °F 53.6 °F 82% 29.82 in 10.0 mi Calm Calm - N/A   Mostly Cloudy
3:35 AM 59.0 °F 53.6 °F 82% 29.83 in 10.0 mi Calm Calm - N/A   Scattered Clouds
3:55 AM 59.0 °F 53.6 °F 82% 29.83 in 10.0 mi Calm Calm - N/A   Clear
4:15 AM 59.0 °F 53.6 °F 82% 29.84 in 10.0 mi Calm Calm - N/A   Clear
4:35 AM 60.8 °F 50.0 °F 68% 29.85 in 10.0 mi Calm Calm - N/A   Clear
4:55 AM 59.0 °F 51.8 °F 77% 29.86 in 10.0 mi South 3.5 mph - N/A   Clear
5:15 AM 59.0 °F 50.0 °F 72% 29.86 in 10.0 mi South 8.1 mph - N/A   Clear
5:35 AM 60.8 °F 48.2 °F 63% 29.87 in 10.0 mi SSW 5.8 mph - N/A   Partly Cloudy
5:55 AM 59.0 °F 48.2 °F 67% 29.88 in 10.0 mi South 5.8 mph - N/A   Partly Cloudy
6:35 AM 60.8 °F 46.4 °F 59% 29.90 in 10.0 mi SSW 6.9 mph - N/A   Clear
6:55 AM 60.8 °F 46.4 °F 59% 29.91 in 10.0 mi SSW 6.9 mph - N/A   Clear
7:15 AM 62.6 °F 44.6 °F 52% 29.91 in 10.0 mi South 6.9 mph - N/A   Clear
7:35 AM 62.6 °F 48.2 °F 59% 29.92 in 10.0 mi South 5.8 mph - N/A   Clear
7:55 AM 62.6 °F 44.6 °F 52% 29.93 in 10.0 mi SSW 10.4 mph - N/A   Clear
8:15 AM 64.4 °F 44.6 °F 49% 29.94 in 10.0 mi SW 6.9 mph - N/A   Clear
8:35 AM 64.4 °F 44.6 °F 49% 29.95 in 10.0 mi SSW 10.4 mph 17.3 mph N/A   Clear
8:55 AM 62.6 °F 44.6 °F 52% 29.96 in 10.0 mi SSW 10.4 mph - N/A   Scattered Clouds
9:15 AM 64.4 °F 44.6 °F 49% 29.96 in 10.0 mi SSW 9.2 mph 18.4 mph N/A   Mostly Cloudy
9:35 AM 64.4 °F 42.8 °F 45% 29.96 in 10.0 mi South 10.4 mph 19.6 mph N/A   Overcast
9:55 AM 66.2 °F 42.8 °F 43% 29.97 in 10.0 mi South 11.5 mph 18.4 mph N/A   Mostly Cloudy
10:15 AM 66.2 °F 42.8 °F 43% 29.97 in 10.0 mi South 10.4 mph 18.4 mph N/A   Partly Cloudy
10:35 AM 68.0 °F 44.6 °F 43% 29.98 in 10.0 mi SSW 11.5 mph 17.3 mph N/A   Clear
10:55 AM 68.0 °F 44.6 °F 43% 29.98 in 10.0 mi South 8.1 mph 17.3 mph N/A   Clear
11:15 AM 68.0 °F 44.6 °F 43% 29.99 in 10.0 mi SSW 12.7 mph 17.3 mph N/A   Clear
11:35 AM 68.0 °F 42.8 °F 40% 29.99 in 10.0 mi South 10.4 mph 21.9 mph N/A   Clear
11:55 AM 69.8 °F 42.8 °F 38% 29.99 in 10.0 mi South 11.5 mph 16.1 mph N/A   Clear
12:15 PM 69.8 °F 42.8 °F 38% 29.99 in 10.0 mi South 10.4 mph 19.6 mph N/A   Clear
12:35 PM 71.6 °F 44.6 °F 38% 29.99 in 10.0 mi South 9.2 mph 16.1 mph N/A   Clear
12:55 PM 71.6 °F 44.6 °F 38% 29.99 in 10.0 mi SSW 9.2 mph 18.4 mph N/A   Clear
1:15 PM 71.6 °F 44.6 °F 38% 30.00 in 10.0 mi South 12.7 mph 19.6 mph N/A   Clear
1:35 PM 73.4 °F 46.4 °F 38% 30.00 in 10.0 mi SSW 9.2 mph - N/A   Clear
1:55 PM 71.6 °F 46.4 °F 41% 30.00 in 10.0 mi South 10.4 mph 17.3 mph N/A   Clear
2:15 PM 71.6 °F 46.4 °F 41% 30.00 in 10.0 mi SSW 8.1 mph 16.1 mph N/A   Clear
2:35 PM 73.4 °F 46.4 °F 38% 30.00 in 10.0 mi South 11.5 mph 16.1 mph N/A   Clear
2:55 PM 71.6 °F 46.4 °F 41% 30.01 in 10.0 mi South 10.4 mph 17.3 mph N/A   Clear
3:15 PM 73.4 °F 46.4 °F 38% 30.00 in 10.0 mi SW 6.9 mph - N/A   Clear
3:35 PM 73.4 °F 46.4 °F 38% 30.01 in 10.0 mi SSW 8.1 mph - N/A   Clear
3:55 PM 73.4 °F 46.4 °F 38% 30.01 in 10.0 mi South 10.4 mph - N/A   Clear
4:15 PM 73.4 °F 46.4 °F 38% 30.01 in 10.0 mi SW 9.2 mph - N/A   Clear
4:35 PM 73.4 °F 46.4 °F 38% 30.00 in 10.0 mi South 9.2 mph - N/A   Clear
4:55 PM 73.4 °F 48.2 °F 41% 30.00 in 10.0 mi South 5.8 mph - N/A   Clear
5:15 PM 71.6 °F 48.2 °F 43% 30.00 in 10.0 mi South 5.8 mph - N/A   Clear
5:35 PM 71.6 °F 48.2 °F 43% 30.01 in 10.0 mi SSW 5.8 mph - N/A   Clear
5:55 PM 73.4 °F 48.2 °F 41% 30.01 in 10.0 mi SSW 3.5 mph - N/A   Clear
6:15 PM 71.6 °F 48.2 °F 43% 30.01 in 10.0 mi SSW 4.6 mph - N/A   Clear
6:35 PM 71.6 °F 48.2 °F 43% 30.01 in 10.0 mi SSW 8.1 mph - N/A   Clear
6:55 PM 69.8 °F 48.2 °F 46% 30.01 in 10.0 mi SSW 6.9 mph - N/A   Clear
7:15 PM 68.0 °F 48.2 °F 49% 30.02 in 10.0 mi SW 4.6 mph - N/A   Clear
7:35 PM 68.0 °F 48.2 °F 49% 30.02 in 10.0 mi SSW 3.5 mph - N/A   Clear
7:55 PM 68.0 °F 48.2 °F 49% 30.02 in 10.0 mi SSW 3.5 mph - N/A   Clear
8:15 PM 66.2 °F 48.2 °F 52% 30.02 in 10.0 mi SSW 4.6 mph - N/A   Clear
8:35 PM 66.2 °F 48.2 °F 52% 30.03 in 10.0 mi Calm Calm - N/A   Clear
8:55 PM 64.4 °F 48.2 °F 56% 30.03 in 10.0 mi SE 3.5 mph - N/A   Clear
9:15 PM 64.4 °F 48.2 °F 56% 30.04 in 10.0 mi Calm Calm - N/A   Clear
9:35 PM 66.2 °F 48.2 °F 52% 30.04 in 10.0 mi South 3.5 mph - N/A   Clear
9:55 PM 64.4 °F 48.2 °F 56% 30.04 in 10.0 mi Calm Calm - N/A   Clear
10:15 PM 60.8 °F 50.0 °F 68% 30.04 in 10.0 mi SSE 3.5 mph - N/A   Clear
10:35 PM 62.6 °F 48.2 °F 59% 30.04 in 10.0 mi ESE 4.6 mph - N/A   Clear
10:55 PM 60.8 °F 48.2 °F 63% 30.04 in 10.0 mi Calm Calm - N/A   Clear
11:15 PM 60.8 °F 48.2 °F 63% 30.04 in 10.0 mi Calm Calm - N/A   Clear
11:35 PM 60.8 °F 48.2 °F 63% 30.05 in 10.0 mi SE 3.5 mph - N/A   Clear
11:55 PM 60.8 °F 48.2 °F 63% 30.05 in 10.0 mi ENE 4.6 mph - N/A   Clear